Weather History for Port Hope, MI

Change the Weather History Date:

Saturday, September 28, 2013

  Actual Average Record
Temperature  
Mean Temperature 64 °F -  
Max Temperature 72 °F 65 °F 79 °F (1997)
Min Temperature 55 °F 48 °F 42 °F (2012)
Degree Days  
Heating Degree Days 2    
Growing Degree Days 14 (Base 50)    
Moisture  
Dew Point 56 °F    
Average Humidity 76    
Maximum Humidity 93    
Minimum Humidity 57    
Precipitation  
Precipitation 0.00 in - - ()
Sea Level Pressure  
Sea Level Pressure 30.13 in    
Wind  
Wind Speed 5 mph (SE)    
Max Wind Speed 20 mph    
Max Gust Speed 23 mph    
Averages and records for this station are not official NWS values.
T = Trace of Precipitation, MM = Missing Value Source: NWS Daily Summary

Daily Weather History Graph

Daily Weather History Graph

Search for Another Location

Airport:

Trip Planner

Search our weather history database for the weather conditions in past years. The results will help you decide how hot, cold, wet, or windy it might be!

Date:

Astronomy

Sep. 28, 2013 Rise Set
Actual Time 7:25 AM EDT 7:17 PM EDT
Civil Twilight 6:56 AM EDT 7:45 PM EDT
Nautical Twilight 6:23 AM EDT 8:19 PM EDT
Astronomical Twilight 5:49 AM EDT 8:53 PM EDT
Moon 1:01 AM EDT (9/28) 3:45 PM EDT (9/28)
Length of Visible Light 12h 48m
Length of Day
11h 51m
Last Quarter, 36% of the Moon is Illuminated
Sep 28
Last Quarter
Oct 4
New
Oct 11
First Quarter
Oct 18
Full
Oct 26
Last Quarter

Hourly Weather History & Observations

Time (EDT) Temp. Dew Point Humidity Pressure Visibility Wind Dir Wind Speed Gust Speed Precip Events Conditions
12:51 AM 59.0 °F 55.0 °F 87% 30.20 in - Variable 3.5 mph - N/A   Unknown
1:51 AM 57.9 °F 54.0 °F 87% 30.21 in - Calm Calm - N/A   Unknown
2:51 AM 57.0 °F 53.1 °F 87% 30.20 in - Calm Calm - N/A   Unknown
3:51 AM 57.0 °F 53.1 °F 87% 30.20 in - Calm Calm - N/A   Unknown
4:51 AM 55.0 °F 53.1 °F 93% 30.20 in - Calm Calm - N/A   Unknown
5:51 AM 55.9 °F 53.1 °F 90% 30.20 in - Variable 3.5 mph - N/A   Unknown
6:51 AM 55.9 °F 53.1 °F 90% 30.21 in - Calm Calm - N/A   Unknown
7:51 AM 57.0 °F 53.1 °F 87% 30.20 in - Calm Calm - N/A   Unknown
8:51 AM 61.0 °F 55.0 °F 81% 30.20 in - SSE 4.6 mph - N/A   Unknown
9:51 AM 64.0 °F 57.9 °F 80% 30.20 in - SE 8.1 mph - N/A   Unknown
10:51 AM 68.0 °F 59.0 °F 73% 30.19 in - SE 8.1 mph - N/A   Unknown
11:51 AM 68.0 °F 61.0 °F 78% 30.18 in - ESE 11.5 mph 16.1 mph N/A   Unknown
12:51 PM 66.9 °F 61.0 °F 81% 30.16 in - ESE 16.1 mph - N/A   Unknown
1:51 PM 69.1 °F 61.0 °F 75% 30.12 in - ESE 19.6 mph - N/A   Unknown
2:51 PM 70.0 °F 57.9 °F 65% 30.09 in - SE 13.8 mph 21.9 mph N/A   Unknown
3:51 PM 71.1 °F 59.0 °F 66% 30.07 in - SE 11.5 mph - N/A   Unknown
4:51 PM 72.0 °F 55.9 °F 57% 30.04 in - SE 10.4 mph 23.0 mph N/A   Unknown
5:51 PM 71.1 °F 57.0 °F 61% 30.04 in - SE 10.4 mph - N/A   Unknown
6:51 PM 69.1 °F 55.0 °F 61% 30.04 in - SSE 4.6 mph - N/A   Unknown
7:51 PM 66.0 °F 54.0 °F 65% 30.04 in - SSE 3.5 mph - N/A   Unknown
8:51 PM 64.9 °F 52.0 °F 63% 30.03 in - SSE 4.6 mph - N/A   Unknown
9:51 PM 64.0 °F 52.0 °F 65% 30.03 in - Variable 4.6 mph - N/A   Unknown
10:51 PM 63.0 °F 55.0 °F 75% 30.01 in - SSE 5.8 mph - N/A   Unknown
11:51 PM 63.0 °F 55.0 °F 75% 29.99 in - SSE 8.1 mph - N/A   Unknown